Regional Weather Roundup
Issued by NWS

Home | Current Version | Previous Version | Text Only | Print | Product List | Glossary Off
Versions: 1 2 3 4 5 6 7 8 9 10 11 12 13 14 15 16 17 18 19 20 21 22 23 24 25 26 27 28 29 30 31 32 33 34 35 36 37 38 39 40 41 42 43 44 45 46 47 48 49 50

000
ASUS44 KMEG 282110
RWRTN
TENNESSEE HOURLY STATE WEATHER ROUNDUP
NATIONAL WEATHER SERVICE MEMPHIS TN
300 PM CST FRI NOV 28 2014

TNZ002-004-019-021-049-052-054-088>092-282200-
WEST TENNESSEE

CITY           SKY/WX    TMP DP  RH WIND       PRES   REMARKS
MEMPHIS INTL   MOSUNNY   56  23  27 S14G22    30.19F
NWS MEMPHIS      N/A     55 N/A N/A MISG        N/A
JACKSON        SUNNY     52  24  33 S10G16    30.19F
DYERSBURG      SUNNY    N/A N/A N/A S9        30.17F
UNION CITY     SUNNY     46  27  46 S12       30.15F
PARIS          SUNNY     46  25  42 S14       30.17F
HUNTINGDON     SUNNY     47  23  38 S8        30.19F
LEXINGTON      SUNNY     48  21  34 S12       30.20F
SAVANNAH       SUNNY     50  25  37 S7        30.22F
$$

TNZ008-025-027-028-033-062-065-066-282200-
NORTH MIDDLE TENNESSEE

CITY           SKY/WX    TMP DP  RH WIND       PRES   REMARKS
NASHVILLE      MOSUNNY   47  21  35 S9        30.24F
CLARKSVILLE    SUNNY     47  25  42 S9        30.19F
COOKEVILLE     SUNNY     46  19  34 SW7       30.24F
CROSSVILLE     SUNNY     43  15  32 S5        30.23F
$$

TNZ061-075-076-078-094-096-097-282200-
SOUTH MIDDLE TENNESSEE

CITY           SKY/WX    TMP DP  RH WIND       PRES   REMARKS
FAYETTEVILLE   SUNNY     46  19  34 MISG      30.25F
TULLAHOMA      SUNNY     46  14  27 S9        30.25F
WINCHESTER     SUNNY     48  19  32 SE6       30.26F
MCMINNVILLE    SUNNY     48  23  37 CALM      30.23F
COLUMBIA       SUNNY     48  27  43 SE7       30.22F
SHELBYVILLE    SUNNY     48  21  34 S13       30.25F
$$

TNZ017-018-042-046-047-282200-
NORTHEAST TENNESSEE

CITY           SKY/WX    TMP DP  RH WIND       PRES   REMARKS
TRI CITIES     PTSUNNY   37  20  50 SW5       30.26F WCI  33
ELIZABETHTON   PTCLDY    34  18  51 CALM      30.26F
$$

TNZ012-013-036-069-073-074-282200-
CENTRAL EAST TENNESSEE

CITY           SKY/WX    TMP DP  RH WIND       PRES   REMARKS
KNOXVILLE      MOSUNNY   42  19  39 CALM      30.28F
OAK RIDGE      SUNNY     43  17  35 VRB3      30.30F
GATLINBURG     CLEAR     41  18  38 CALM      30.27F
MORRISTOWN     CLEAR     39  19  45 CALM      30.27F
$$

TNZ083-085-099-282200-
SOUTHEAST TENNESSEE

CITY           SKY/WX    TMP DP  RH WIND       PRES   REMARKS
CHATTANOOGA    SUNNY     47  15  27 CALM      30.31S
$$

SKY/WX REPORTED AS FAIR MEANS FEW OR NO CLOUDS BELOW
12 THOUSAND FEET.



USA.gov is the U.S. government's official web portal to all federal, state and local government web resources and services.